This demonstration page uses our WeatherBlox Daily Observations layout. Learn more.

36.17497, -115.13722

Hourly Observations for April 10, 2018

Temp ( °F °C ) Dew Point ( °F °C ) Humidity (%) Winds ( mph kmh ) Pressure ( in mb ) Visibility ( mi km ) Precip ( " mm )
12:53 am 00:53 Clear 63 17.2 22 -5.6 21 21 NNW 7 11 30.12 1020 10 16.09344 0 0
1:53 am 01:53 Clear 61 16.1 22 -5.6 22 22 NW 6 9 30.12 1020 10 16.09344 0 0
2:53 am 02:53 Clear 62 16.7 25 -3.9 24 24 NW 3 6 30.09 1019 10 16.09344 0 0
3:53 am 03:53 Clear 60 15.6 26 -3.3 27 27 W 3 6 30.09 1019 10 16.09344 0 0
4:53 am 04:53 Clear 58 14.4 26 -3.3 29 29 NNW 5 7 30.09 1019 10 16.09344 0 0
5:53 am 05:53 Clear 57 13.9 26 -3.3 30 30 N 6 9 30.12 1020 10 16.09344 0 0
6:53 am 06:53 Sunny 60 15.6 28 -2.2 30 30 WNW 6 9 30.12 1020 10 16.09344 0 0
7:53 am 07:53 Sunny 64 17.8 27 -2.8 25 25 WNW 5 7 30.12 1020 10 16.09344 0 0
8:53 am 08:53 Sunny 67 19.4 28 -2.2 23 23 NNE 3 6 30.12 1020 10 16.09344 0 0
9:53 am 09:53 Sunny 71 21.7 23 -5 16 16 Calm 30.12 1020 10 16.09344 0 0
10:53 am 10:53 Sunny 75 23.9 21 -6.1 13 13 ENE 3 6 30.12 1020 10 16.09344 0 0
11:53 am 11:53 Sunny 78 25.6 19 -7.2 11 11 N 6 9 30.09 1019 10 16.09344 0 0
12:53 pm 12:53 Sunny 80 26.7 16 -8.9 9 9 S 7 11 30.06 1018 10 16.09344 0 0
1:53 pm 13:53 Sunny 83 28.3 15 -9.4 8 8 ESE 9 15 30 1016 10 16.09344 0 0
2:53 pm 14:53 Sunny 84 28.9 14 -10 7 7 SSE 9 15 29.97 1015 10 16.09344 0 0
3:53 pm 15:53 Sunny 86 30 13 -10.6 6 6 undefined N/A 29.94 1014 10 16.09344 0 0
4:53 pm 16:53 Sunny 86 30 13 -10.6 6 6 E 7 11 29.91 1013 10 16.09344 0 0
5:53 pm 17:53 Sunny 87 30.6 14 -10 6 6 E 5 7 29.88 1012 10 16.09344 0 0
6:53 pm 18:53 Sunny 85 29.4 16 -8.9 7 7 NNE 5 7 29.88 1012 10 16.09344 0 0
7:53 pm 19:53 Clear 82 27.8 16 -8.9 8 8 NW 3 6 29.88 1012 10 16.09344 0 0
10:53 pm 22:53 Clear 80 26.7 14 -10 8 8 S 8 13 29.85 1011 10 16.09344 0 0
11:53 pm 23:53 Clear 81 27.2 18 -7.8 9 9 WSW 13 20 29.85 1011 10 16.09344 0 0

Powered by AerisWeather